This is the latest recevied weather packets stored in our database for station/object IZ0VWB-3. If no packets are shown the sender has not sent any weather packets the latest 10 day(s).
| Time | Temp. | Humidity | Pressure | Rain* | Wind** | Luminosity | Snow |
|---|---|---|---|---|---|---|---|
| 1777290230 | 23.89° C | 44% | 1005 hPa | 0 mm | - | - | - |
| 1777289632 | 23.89° C | 42% | 1005 hPa | 0 mm | - | - | - |
| 1777289030 | 23.33° C | 43% | 1005 hPa | 0 mm | - | - | - |
| 1777288431 | 23.33° C | 42% | 1005.1 hPa | 0 mm | - | - | - |
| 1777287831 | 23.33° C | 41% | 1005.2 hPa | 0 mm | - | - | - |
| 1777287232 | 23.89° C | 41% | 1005.3 hPa | 0 mm | - | - | - |
| 1777286632 | 23.33° C | 41% | 1005.4 hPa | 0 mm | - | - | - |
| 1777286033 | 23.33° C | 45% | 1005.5 hPa | 0 mm | - | - | - |
| 1777285431 | 22.22° C | 45% | 1005.6 hPa | 0 mm | - | - | - |
| 1777284833 | 22.22° C | 46% | 1005.7 hPa | 0 mm | - | - | - |
| 1777284231 | 22.22° C | 43% | 1005.8 hPa | 0 mm | - | - | - |
| 1777283632 | 21.67° C | 45% | 1005.9 hPa | 0 mm | - | - | - |
| 1777283032 | 21.67° C | 47% | 1006 hPa | 0 mm | - | - | - |
| 1777282433 | 21.11° C | 47% | 1006.1 hPa | 0 mm | - | - | - |
| 1777281832 | 21.11° C | 47% | 1006.2 hPa | 0 mm | - | - | - |
| 1777281232 | 20.56° C | 52% | 1006.2 hPa | 0 mm | - | - | - |
| 1777280633 | 20° C | 55% | 1006.4 hPa | 0 mm | - | - | - |
| 1777280031 | 19.44° C | 57% | 1006.4 hPa | 0 mm | - | - | - |
| 1777279432 | 19.44° C | 59% | 1006.6 hPa | 0 mm | - | - | - |
| 1777278832 | 19.44° C | 58% | 1006.7 hPa | 0 mm | - | - | - |
| 1777278232 | 20° C | 56% | 1006.6 hPa | 0 mm | - | - | - |
| 1777277630 | 20° C | 57% | 1006.7 hPa | 0 mm | - | - | - |
| 1777277031 | 19.44° C | 59% | 1006.5 hPa | 0 mm | - | - | - |
| 1777276432 | 18.89° C | 60% | 1006.6 hPa | 0 mm | - | - | - |
| 1777275831 | 18.33° C | 60% | 1006.6 hPa | 0 mm | - | - | - |
* Rain latest hour (hover to see other rain measurements)
** Current wind speed in m/s (hover to see current wind gust speed)